Weather History for Silver Bay, MN

Change the Weather History Date:

Tuesday, July 16, 2013

  Actual Average Record
Temperature  
Mean Temperature 72 °F -  
Max Temperature 87 °F 72 °F 91 °F (2012)
Min Temperature 57 °F 49 °F 39 °F (2014)
Cooling Degree Days 7    
Growing Degree Days 22 (Base 50)    
Moisture  
Dew Point 60 °F    
Average Humidity 69    
Maximum Humidity 94    
Minimum Humidity 35    
Precipitation  
Precipitation 0.00 in - - ()
Sea Level Pressure  
Sea Level Pressure 30.15 in    
Wind  
Wind Speed 2 mph (SW)    
Max Wind Speed 15 mph    
Max Gust Speed 21 mph    
Visibility 9 miles    
Events      
Averages and records for this station are not official NWS values.
T = Trace of Precipitation, MM = Missing Value Source: NWS Daily Summary

Daily Weather History Graph

Daily Weather History Graph

Search for Another Location

Airport:

Trip Planner

Search our weather history database for the weather conditions in past years. The results will help you decide how hot, cold, wet, or windy it might be!

Date:

Astronomy

Jul. 16, 2013 Rise Set
Actual Time 5:26 AM CDT 8:56 PM CDT
Civil Twilight 4:47 AM CDT 9:34 PM CDT
Nautical Twilight 3:57 AM CDT 10:25 PM CDT
Astronomical Twilight 2:49 AM CDT 11:32 PM CDT
Moon 2:29 PM CDT (7/16) 12:08 AM CDT (7/16)
Length of Visible Light 16h 46m
Length of Day
15h 30m
First Quarter, 56% of the Moon is Illuminated
Jul 16
First Quarter
Jul 22
Full
Jul 29
Last Quarter
Aug 6
New
Aug 14
First Quarter

Hourly Weather History & Observations

Time (CDT) Temp. Heat Index Dew Point Humidity Pressure Visibility Wind Dir Wind Speed Gust Speed Precip Events Conditions
12:13 AM 60.8 °F - 55.4 °F 82% 30.20 in 7.0 mi Calm Calm - N/A   Clear
12:33 AM 60.8 °F - 57.2 °F 88% 30.20 in 7.0 mi Calm Calm - N/A   Clear
12:53 AM 60.8 °F - 57.2 °F 88% 30.20 in 7.0 mi Calm Calm - N/A   Clear
1:13 AM 60.8 °F - 57.2 °F 88% 30.20 in 7.0 mi Calm Calm - N/A   Clear
1:33 AM 60.8 °F - 55.4 °F 82% 30.20 in 7.0 mi Calm Calm - N/A   Clear
1:53 AM 59.0 °F - 55.4 °F 88% 30.19 in 7.0 mi Calm Calm - N/A   Clear
2:13 AM 59.0 °F - 55.4 °F 88% 30.19 in 5.0 mi Calm Calm - N/A   Clear
2:33 AM 57.2 °F - 53.6 °F 88% 30.18 in 5.0 mi Calm Calm - N/A   Clear
2:53 AM 57.2 °F - 55.4 °F 94% 30.19 in 5.0 mi Calm Calm - N/A   Clear
3:13 AM 57.2 °F - 55.4 °F 94% 30.18 in 5.0 mi Calm Calm - N/A   Clear
3:33 AM 57.2 °F - 55.4 °F 94% 30.18 in 5.0 mi Calm Calm - N/A   Clear
3:53 AM 57.2 °F - 55.4 °F 94% 30.18 in 7.0 mi Calm Calm - N/A   Clear
4:13 AM 57.2 °F - 53.6 °F 88% 30.18 in 7.0 mi Calm Calm - N/A   Scattered Clouds
4:33 AM 57.2 °F - 53.6 °F 88% 30.17 in 7.0 mi Calm Calm - N/A   Scattered Clouds
4:53 AM 57.2 °F - 55.4 °F 94% 30.17 in 7.0 mi Calm Calm - N/A   Scattered Clouds
5:13 AM 57.2 °F - 53.6 °F 88% 30.17 in 7.0 mi Calm Calm - N/A   Mostly Cloudy
5:33 AM 57.2 °F - 55.4 °F 94% 30.17 in 7.0 mi Calm Calm - N/A   Overcast
5:53 AM 59.0 °F - 55.4 °F 88% 30.18 in 5.0 mi Calm Calm - N/A   Mostly Cloudy
6:13 AM 60.8 °F - 55.4 °F 82% 30.17 in 5.0 mi Calm Calm - N/A   Scattered Clouds
6:33 AM 60.8 °F - 55.4 °F 82% 30.17 in 7.0 mi Calm Calm - N/A   Scattered Clouds
6:53 AM 60.8 °F - 55.4 °F 82% 30.18 in 7.0 mi Calm Calm - N/A   Scattered Clouds
7:13 AM 60.8 °F - 55.4 °F 82% 30.18 in 7.0 mi Calm Calm - N/A   Clear
7:33 AM 60.8 °F - 57.2 °F 88% 30.17 in 7.0 mi Calm Calm - N/A   Scattered Clouds
7:53 AM 62.6 °F - 57.2 °F 82% 30.17 in 7.0 mi Calm Calm - N/A   Clear
8:13 AM 64.4 °F - 57.2 °F 77% 30.17 in 7.0 mi Calm Calm - N/A   Clear
8:33 AM 64.4 °F - 59.0 °F 83% 30.17 in 7.0 mi Calm Calm - N/A   Clear
8:53 AM 66.2 °F - 59.0 °F 78% 30.17 in 10.0 mi Calm Calm - N/A   Clear
9:13 AM 68.0 °F - 60.8 °F 78% 30.17 in 10.0 mi Calm Calm - N/A   Clear
9:33 AM 71.6 °F - 62.6 °F 73% 30.16 in 10.0 mi Calm Calm - N/A   Clear
9:53 AM 73.4 °F - 62.6 °F 69% 30.16 in 10.0 mi Calm Calm - N/A   Clear
10:13 AM 75.2 °F - 62.6 °F 65% 30.15 in 10.0 mi Calm Calm - N/A   Clear
10:33 AM 75.2 °F - 62.6 °F 65% 30.15 in 10.0 mi Calm Calm - N/A   Clear
10:53 AM 77.0 °F - 62.6 °F 61% 30.15 in 10.0 mi Calm Calm - N/A   Clear
11:13 AM 75.2 °F - 62.6 °F 65% 30.15 in 10.0 mi South 5.8 mph - N/A   Clear
11:33 AM 77.0 °F - 62.6 °F 61% 30.14 in 10.0 mi South 8.1 mph - N/A   Clear
11:53 AM 75.2 °F - 62.6 °F 65% 30.14 in 10.0 mi Calm Calm - N/A   Clear
12:13 PM 78.8 °F - 64.4 °F 61% 30.14 in 10.0 mi SSW 11.5 mph - N/A   Clear
12:33 PM 80.6 °F 82.3 °F 64.4 °F 58% 30.13 in 10.0 mi SSW 11.5 mph - N/A   Clear
12:53 PM 82.4 °F 83.9 °F 64.4 °F 54% 30.13 in 10.0 mi SSW 10.4 mph - N/A   Clear
1:14 PM 82.4 °F 84.6 °F 66.2 °F 58% 30.13 in 10.0 mi SSW 10.4 mph - N/A   Clear
1:33 PM 84.2 °F 86.6 °F 66.2 °F 55% 30.12 in 10.0 mi SSW 12.7 mph 18.4 mph N/A   Clear
1:53 PM 84.2 °F 85.6 °F 64.4 °F 51% 30.13 in 10.0 mi SW 11.5 mph - N/A   Clear
2:13 PM 82.4 °F 83.9 °F 64.4 °F 54% 30.12 in 10.0 mi SSW 12.7 mph 16.1 mph N/A   Clear
2:33 PM 84.2 °F 85.6 °F 64.4 °F 51% 30.12 in 10.0 mi SSW 10.4 mph - N/A   Clear
2:53 PM 84.2 °F 85.6 °F 64.4 °F 51% 30.12 in 10.0 mi SSW 15.0 mph 20.7 mph N/A   Clear
3:13 PM 84.2 °F 85.6 °F 64.4 °F 51% 30.12 in 10.0 mi SSW 10.4 mph 18.4 mph N/A   Clear
3:33 PM 86.0 °F 87.3 °F 64.4 °F 48% 30.11 in 10.0 mi SSW 10.4 mph - N/A   Clear
3:53 PM 86.0 °F 86.6 °F 62.6 °F 45% 30.11 in 10.0 mi SW 3.5 mph - N/A   Clear
4:14 PM 87.8 °F 86.5 °F 57.2 °F 35% 30.11 in 10.0 mi WSW 6.9 mph - N/A   Clear
4:33 PM 87.8 °F 86.5 °F 57.2 °F 35% 30.11 in 10.0 mi WSW 6.9 mph 16.1 mph N/A   Clear
4:53 PM 87.8 °F 87.1 °F 59.0 °F 38% 30.10 in 10.0 mi WSW 3.5 mph - N/A   Clear
5:13 PM 87.8 °F 87.1 °F 59.0 °F 38% 30.10 in 10.0 mi SW 4.6 mph 16.1 mph N/A   Clear
5:33 PM 86.0 °F 84.9 °F 57.2 °F 37% 30.10 in 10.0 mi WSW 9.2 mph 16.1 mph N/A   Clear
5:53 PM 86.0 °F 84.9 °F 57.2 °F 37% 30.10 in 10.0 mi WSW 6.9 mph - N/A   Clear
6:13 PM 86.0 °F 84.9 °F 57.2 °F 37% 30.10 in 10.0 mi SW 8.1 mph - N/A   Clear
6:33 PM 84.2 °F 83.5 °F 57.2 °F 40% 30.09 in 10.0 mi WSW 8.1 mph - N/A   Clear
6:53 PM 84.2 °F 83.8 °F 59.0 °F 42% 30.10 in 10.0 mi WSW 5.8 mph - N/A   Clear
7:13 PM 84.2 °F 83.8 °F 59.0 °F 42% 30.10 in 10.0 mi Calm Calm - N/A   Clear
7:33 PM 82.4 °F 82.5 °F 59.0 °F 45% 30.10 in 10.0 mi Calm Calm - N/A   Clear
7:53 PM 80.6 °F 81.1 °F 59.0 °F 48% 30.11 in 10.0 mi Calm Calm - N/A   Clear
8:13 PM 80.6 °F 81.5 °F 60.8 °F 51% 30.12 in 10.0 mi Calm Calm - N/A   Clear
8:33 PM 78.8 °F - 60.8 °F 54% 30.12 in 10.0 mi Calm Calm - N/A   Clear
8:53 PM 75.2 °F - 60.8 °F 61% 30.12 in 10.0 mi Calm Calm - N/A   Clear
9:13 PM 73.4 °F - 62.6 °F 69% 30.14 in 10.0 mi Calm Calm - N/A   Clear
9:33 PM 71.6 °F - 62.6 °F 73% 30.14 in 10.0 mi Calm Calm - N/A   Clear
9:53 PM 69.8 °F - 62.6 °F 78% 30.15 in 10.0 mi Calm Calm - N/A   Clear
10:13 PM 69.8 °F - 62.6 °F 78% 30.14 in 10.0 mi Calm Calm - N/A   Clear
10:33 PM 68.0 °F - 62.6 °F 83% 30.14 in 10.0 mi Calm Calm - N/A   Clear
10:53 PM 68.0 °F - 62.6 °F 83% 30.14 in 10.0 mi Calm Calm - N/A   Clear
11:13 PM 66.2 °F - 62.6 °F 88% 30.14 in 10.0 mi Calm Calm - N/A   Clear
11:33 PM 66.2 °F - 62.6 °F 88% 30.14 in 10.0 mi Calm Calm - N/A   Clear
11:53 PM 66.2 °F - 62.6 °F 88% 30.14 in 10.0 mi Calm Calm - N/A   Clear